[[{"header":{"parameterUnit":"m.s-1","parameterCategory":1,"la1":30.2991,"la2":30.254,"lo1":-89.0895,"lo2":-89.0444,"dy":0.0017,"dx":0.0017,"nx":28,"ny":28,"refTime":"2025-04-22T21:00:00:Z","depth":0,"parameterNumber":2,"parameterNumberName":"U-component_of_WINDS"},"data":[0,0,0,0,0,0,0,0,0,0,0,0,0,0,0,0,0,0,0,0,0,0,0,0,0,0,0,0,0,0,0,0,0,0,0,0,0,0,0,0,0,0,0,0,0,0,0,0,0,0,0,0,0,0,0,0,0,0,-1.1457,-1.1457,0,-1.1452,-1.1452,-1.1452,-1.145,-1.145,-1.145,-1.145,-1.1443,-1.1442,-1.1442,0,0,0,0,0,0,0,0,0,0,0,0,0,-1.1465,-1.1465,-1.1457,-1.1457,-1.1457,-1.1452,-1.1452,-1.1452,-1.145,-1.145,-1.145,-1.145,-1.1443,-1.1442,-1.1442,0,0,0,0,0,0,0,0,0,0,0,0,0,-1.1461,-1.1465,-1.1457,-1.1456,-1.1455,-1.1452,-1.1452,-1.1452,-1.145,-1.145,-1.145,-1.145,-1.1443,-1.1442,-1.1442,-1.1439,0,0,-1.1441,-1.1441,0,0,0,0,0,0,0,0,-1.1461,-1.146,-1.1456,-1.1456,-1.1455,-1.1452,-1.1452,-1.1447,-1.145,-1.1452,-1.145,-1.145,-1.1445,-1.1445,-1.1444,-1.1439,-1.1438,-1.1441,-1.1441,-1.1441,-1.1441,0,0,0,0,0,0,0,-1.1461,-1.1461,-1.1455,-1.1456,-1.1455,-1.1455,-1.1454,-1.1451,-1.1448,-1.1452,-1.1452,-1.1451,-1.1445,-1.1444,-1.1444,-1.1438,-1.1441,-1.1441,-1.144,-1.144,-1.1432,-1.1432,0,0,0,0,0,0,-1.1462,-1.1461,-1.1455,-1.1455,-1.1458,-1.1455,-1.1454,-1.1453,-1.1448,-1.1448,-1.1451,-1.1451,-1.1445,-1.1444,-1.1443,-1.144,-1.1441,-1.144,-1.144,-1.1432,-1.1432,-1.1432,0,0,0,0,0,0,-1.1462,-1.1461,-1.1455,-1.1458,-1.1457,-1.1455,-1.1453,-1.1453,-1.1451,-1.1448,-1.1447,-1.145,-1.1445,-1.1444,-1.1441,-1.144,-1.144,-1.144,-1.1432,-1.1432,-1.1432,-1.1433,0,0,0,0,0,0,-1.1462,-1.1461,-1.146,-1.1458,-1.1457,-1.1453,-1.1453,-1.1453,-1.1451,-1.1451,-1.1447,-1.1446,-1.1445,-1.1441,-1.144,-1.1439,-1.144,-1.1432,-1.1432,-1.1432,-1.1433,-1.1433,-1.1433,0,0,0,0,0,-1.1463,-1.146,-1.146,-1.1459,-1.1455,-1.1453,-1.1452,-1.1451,-1.1451,-1.145,-1.1448,-1.1447,-1.144,-1.1441,-1.144,-1.1439,-1.1432,-1.1432,-1.1432,-1.1433,-1.1433,-1.1433,0,0,0,0,0,0,-1.1461,-1.146,-1.146,-1.1456,-1.1455,-1.1452,-1.1451,-1.145,-1.1448,-1.1448,-1.1446,-1.1445,-1.1442,-1.144,-1.1441,-1.1436,-1.1436,-1.1436,-1.1438,-1.1438,-1.1438,-1.1438,-1.1439,0,0,0,0,0,-1.1461,-1.1459,-1.1458,-1.1455,-1.1454,-1.1453,-1.1451,-1.1451,-1.1449,-1.1448,-1.1446,-1.1443,-1.1441,-1.1439,-1.1437,-1.1434,-1.1433,-1.1433,-1.1433,-1.1433,-1.1432,-1.1431,-1.1431,-1.1432,-1.1432,-1.1432,0,0,-1.1459,-1.1458,-1.1457,-1.1455,-1.1453,-1.1452,-1.1452,-1.145,-1.1449,-1.1447,-1.1444,-1.1443,-1.144,-1.1438,-1.1436,-1.1436,-1.1432,-1.1433,-1.1433,-1.1432,-1.1431,-1.1431,-1.1431,-1.1432,-1.1432,-1.1432,0,0,-1.1455,-1.1454,-1.1452,-1.1452,-1.145,-1.145,-1.145,-1.1448,-1.1447,-1.1445,-1.1444,-1.1443,-1.1438,-1.1437,-1.1435,-1.1434,-1.1433,-1.1433,-1.1433,-1.1432,-1.1432,-1.1432,-1.1432,-1.1432,-1.1433,-1.1433,-1.1433,0,-1.1453,-1.1451,-1.1451,-1.145,-1.1449,-1.1449,-1.1448,-1.1447,-1.1444,-1.1444,-1.1444,-1.144,-1.1438,-1.1435,-1.1435,-1.1434,-1.1434,-1.1433,-1.1432,-1.1432,-1.1432,-1.1432,-1.1432,-1.1433,-1.1433,-1.1433,-1.1433,0,-1.1449,-1.1447,-1.1446,-1.1445,-1.1444,-1.1443,-1.1443,-1.1442,-1.1442,-1.1442,-1.144,-1.1438,-1.1436,-1.1435,-1.1435,-1.1433,-1.1433,-1.1433,-1.1432,-1.1432,-1.1432,-1.1432,-1.1433,-1.1433,-1.1433,-1.1433,0,0,-1.1442,-1.1443,-1.1442,-1.1443,-1.1442,-1.1441,-1.144,-1.1439,-1.1439,-1.1438,-1.1437,-1.1435,-1.1435,-1.1434,-1.1433,-1.1433,-1.1432,-1.1433,-1.1433,-1.1433,-1.1431,-1.1431,-1.1431,-1.1432,-1.1432,-1.1432,-1.1432,0,-1.1438,-1.1436,-1.1438,-1.1436,-1.1435,-1.1437,-1.1436,-1.1435,-1.1436,-1.1435,-1.1435,-1.1433,-1.1434,-1.1433,-1.1433,-1.1432,-1.1432,-1.1433,-1.1431,-1.1431,-1.1431,-1.1431,-1.143,-1.1429,-1.1431,-1.1431,-1.1431,0,-1.1433,-1.1433,-1.1432,-1.1433,-1.1433,-1.1432,-1.1432,-1.1431,-1.1432,-1.1432,-1.1432,-1.1432,-1.1431,-1.1432,-1.1431,-1.1431,-1.1431,-1.1431,-1.1431,-1.143,-1.1431,-1.143,-1.1429,-1.1429,-1.1431,-1.1431,-1.1431,0,-1.1428,-1.1428,-1.1428,-1.1428,-1.1429,-1.1429,-1.1429,-1.143,-1.143,-1.143,-1.143,-1.143,-1.1429,-1.1429,-1.143,-1.143,-1.1429,-1.143,-1.1429,-1.1429,-1.1428,-1.1428,-1.1427,-1.1429,-1.1429,-1.1429,-1.1429,0,-1.1424,-1.1423,-1.1426,-1.1425,-1.1425,-1.1426,-1.1426,-1.1426,-1.1427,-1.1427,-1.1428,-1.1428,-1.1429,-1.1429,-1.1429,-1.1429,-1.1429,-1.1429,-1.1429,-1.1428,-1.1428,-1.1427,-1.1427,-1.1429,-1.1429,-1.1429,-1.1429,0,-1.1418,-1.142,-1.1419,-1.1422,-1.1422,-1.1422,-1.1424,-1.1423,-1.1425,-1.1425,-1.1425,-1.1426,-1.1426,-1.1427,-1.1427,-1.1428,-1.1427,-1.1427,-1.1427,-1.1427,-1.1427,-1.1427,-1.1425,-1.1425,-1.1427,-1.1427,-1.1427,0,-1.1414,-1.1414,-1.1417,-1.1417,-1.1418,-1.1418,-1.1419,-1.1421,-1.1422,-1.1423,-1.1423,-1.1424,-1.1424,-1.1425,-1.1426,-1.1426,-1.1426,-1.1426,-1.1426,-1.1426,-1.1426,-1.1426,-1.1426,-1.1425,-1.1425,-1.1425,-1.1425,0,-1.1408,-1.141,-1.141,-1.1412,-1.1413,-1.1414,-1.1416,-1.1416,-1.1419,-1.1419,-1.142,-1.1421,-1.1422,-1.1423,-1.1424,-1.1424,-1.1425,-1.1425,-1.1425,-1.1424,-1.1424,-1.1424,-1.1426,-1.1425,-1.1425,-1.1425,-1.1425,-1.1425,-1.1403,-1.1403,-1.1406,-1.1407,-1.1409,-1.141,-1.1411,-1.1413,-1.1414,-1.1415,-1.1417,-1.1418,-1.142,-1.1422,-1.1422,-1.1423,-1.1423,-1.1423,-1.1423,-1.1423,-1.1423,-1.1425,-1.1423,-1.1423,-1.1423,-1.1423,-1.1423,0,-1.1397,-1.1399,-1.1401,-1.1403,-1.1404,-1.1407,-1.1409,-1.141,-1.1411,-1.1413,-1.1414,-1.1416,-1.1417,-1.1419,-1.142,-1.1421,-1.1421,-1.1421,-1.1421,-1.1421,-1.1422,-1.1422,-1.1421,-1.1421,-1.1421,-1.1421,-1.1421,-1.1421,-1.1394,-1.1394,-1.1397,-1.1398,-1.1401,-1.1402,-1.1403,-1.1405,-1.1407,-1.1409,-1.1411,-1.1412,-1.1415,-1.1417,-1.1418,-1.1419,-1.1419,-1.1419,-1.142,-1.1421,-1.1421,-1.1421,-1.1421,-1.1419,-1.1419,-1.1418,-1.1418,-1.1418]},{"header":{"parameterUnit":"m.s-1","parameterCategory":1,"la1":30.2991,"la2":30.254,"lo1":-89.0895,"lo2":-89.0444,"dy":0.0017,"dx":0.0017,"nx":28,"ny":28,"refTime":"2025-04-22T21:00:00:Z","depth":0,"parameterNumber":3,"parameterNumberName":"V-component_of_WINDS"},"data":[0,0,0,0,0,0,0,0,0,0,0,0,0,0,0,0,0,0,0,0,0,0,0,0,0,0,0,0,0,0,0,0,0,0,0,0,0,0,0,0,0,0,0,0,0,0,0,0,0,0,0,0,0,0,0,0,0,0,4.079,4.0789,0,4.0717,4.0716,4.0715,4.0706,4.0707,4.0708,4.0708,4.0629,4.0626,4.0624,0,0,0,0,0,0,0,0,0,0,0,0,0,4.0917,4.0915,4.079,4.0789,4.0788,4.0717,4.0716,4.0715,4.0706,4.0707,4.0708,4.0709,4.063,4.0627,4.0623,0,0,0,0,0,0,0,0,0,0,0,0,0,4.0855,4.0914,4.079,4.0775,4.0773,4.0717,4.0716,4.0715,4.0706,4.0707,4.0708,4.0709,4.0631,4.0627,4.0623,4.0576,0,0,4.061,4.0608,0,0,0,0,0,0,0,0,4.0858,4.085,4.0778,4.0776,4.0774,4.0722,4.0732,4.0668,4.0706,4.0731,4.0708,4.071,4.0659,4.0652,4.0636,4.0572,4.0569,4.061,4.0607,4.0606,4.0604,0,0,0,0,0,0,0,4.0862,4.0853,4.0761,4.0777,4.0774,4.0771,4.0763,4.072,4.069,4.0729,4.0728,4.072,4.0658,4.064,4.0634,4.0568,4.061,4.0606,4.0604,4.0602,4.0461,4.046,0,0,0,0,0,0,4.087,4.0857,4.0763,4.0759,4.082,4.0768,4.0759,4.0737,4.069,4.0684,4.0719,4.072,4.0647,4.0639,4.0632,4.0573,4.0606,4.0602,4.0599,4.0462,4.0461,4.046,0,0,0,0,0,0,4.0873,4.0862,4.0766,4.0807,4.0795,4.0764,4.074,4.0735,4.0718,4.0683,4.0677,4.0707,4.0647,4.0637,4.059,4.057,4.06,4.0596,4.0464,4.0462,4.046,4.0456,0,0,0,0,0,0,4.0877,4.0863,4.0846,4.0807,4.0793,4.0727,4.0739,4.0733,4.0711,4.0712,4.067,4.0664,4.0648,4.0596,4.0586,4.0565,4.0593,4.0466,4.0463,4.0461,4.0458,4.0454,4.0451,0,0,0,0,0,4.0881,4.0846,4.0845,4.0833,4.0771,4.0726,4.0718,4.0701,4.071,4.0691,4.0669,4.0665,4.0575,4.0592,4.058,4.0557,4.0467,4.0464,4.0461,4.0459,4.0455,4.0451,0,0,0,0,0,0,4.0881,4.0841,4.0839,4.0791,4.0762,4.0725,4.0701,4.0696,4.0663,4.0665,4.0644,4.0634,4.0588,4.0568,4.0588,4.0509,4.0521,4.0516,4.0524,4.052,4.0516,4.0522,4.0589,0,0,0,0,0,4.0876,4.0844,4.081,4.0771,4.0757,4.0731,4.0711,4.0701,4.067,4.0657,4.0631,4.06,4.0564,4.0541,4.0506,4.0455,4.0446,4.0434,4.0431,4.0429,4.0424,4.0395,4.039,4.045,4.045,4.045,0,0,4.0863,4.0838,4.0819,4.077,4.0747,4.0713,4.0721,4.0685,4.066,4.0651,4.0605,4.0585,4.0549,4.05,4.0477,4.0482,4.0405,4.0425,4.0423,4.042,4.0392,4.0386,4.0381,4.0448,4.0449,4.0449,0,0,4.0824,4.0802,4.0767,4.0744,4.0709,4.0693,4.0685,4.0648,4.0635,4.0589,4.0582,4.0551,4.049,4.0465,4.0444,4.0397,4.0392,4.0386,4.0368,4.0341,4.0336,4.0332,4.0314,4.0309,4.0382,4.0381,4.0381,0,4.0813,4.0764,4.0749,4.0714,4.0693,4.0685,4.0649,4.0627,4.0582,4.0567,4.0573,4.0498,4.0472,4.0417,4.0406,4.039,4.0379,4.039,4.0338,4.0334,4.0329,4.0313,4.0306,4.0381,4.0381,4.0381,4.0381,0,4.0752,4.0718,4.0694,4.0653,4.0628,4.0593,4.0571,4.0549,4.0541,4.0523,4.0477,4.0447,4.0406,4.0392,4.0383,4.0336,4.034,4.0343,4.0354,4.0323,4.0307,4.0301,4.038,4.038,4.0381,4.0381,0,0,4.0709,4.0662,4.0653,4.0634,4.0596,4.0569,4.0533,4.0495,4.0475,4.0445,4.0413,4.0363,4.0366,4.0342,4.033,4.0306,4.0271,4.0312,4.0311,4.0305,4.0216,4.0214,4.0207,4.0268,4.0267,4.0266,4.0219,0,4.0665,4.0603,4.0589,4.0534,4.0502,4.0495,4.0464,4.0436,4.0419,4.0389,4.0369,4.0334,4.034,4.0326,4.0302,4.028,4.0252,4.0283,4.0237,4.0236,4.0246,4.0198,4.0195,4.0153,4.0213,4.0212,4.0211,0,4.0606,4.0576,4.0518,4.0485,4.0471,4.0443,4.0407,4.0379,4.0347,4.0336,4.0311,4.0302,4.0263,4.0278,4.0224,4.0245,4.0226,4.0212,4.021,4.0204,4.0221,4.019,4.0139,4.0132,4.0201,4.0202,4.0202,0,4.058,4.0525,4.0484,4.0468,4.0428,4.0409,4.0391,4.0361,4.0339,4.0307,4.0293,4.0257,4.0236,4.0208,4.019,4.0202,4.0137,4.015,4.0126,4.0127,4.0112,4.0113,4.0055,4.0101,4.0101,4.0101,4.0101,0,4.0532,4.0497,4.0472,4.0446,4.0407,4.0391,4.0351,4.0333,4.0307,4.0277,4.0269,4.024,4.0218,4.0187,4.0172,4.0129,4.012,4.011,4.0106,4.011,4.0111,4.0096,4.0098,4.0099,4.01,4.01,4.01,0,4.0496,4.0478,4.0432,4.0399,4.039,4.0362,4.0333,4.0307,4.0291,4.0253,4.0243,4.0217,4.0179,4.0158,4.0111,4.0101,4.0053,4.0051,4.0064,4.0063,4.004,4.0042,3.997,3.996,4.0012,4.0012,4.0012,0,4.0466,4.0439,4.0404,4.0384,4.0366,4.0334,4.0312,4.0296,4.0273,4.0236,4.0215,4.0177,4.0146,4.0087,4.0062,4.0026,4.0023,4.0,4.0017,4.0022,4.0022,4.0024,4.0021,3.9997,3.9996,3.9996,3.9996,0,4.0415,4.0408,4.0378,4.0344,4.0319,4.0292,4.0264,4.0248,4.0227,4.0202,4.0164,4.0141,4.0093,4.0056,4.0018,3.9998,3.9993,3.9991,3.9983,3.9987,3.9995,3.999,4.0056,3.9992,3.9993,3.9993,3.9993,3.9993,4.0381,4.0357,4.0328,4.0295,4.0273,4.0248,4.0223,4.0204,4.0173,4.0134,4.0126,4.0086,4.0055,4.0004,3.9984,3.9952,3.9956,3.9945,3.9942,3.994,3.9939,4.0001,3.9945,3.9945,3.9945,3.9945,3.9945,0,4.0329,4.0311,4.028,4.0243,4.0217,4.0217,4.0186,4.0164,4.013,4.0102,4.0073,4.003,3.9994,3.9968,3.9931,3.991,3.9907,3.9901,3.9902,3.9897,3.9937,3.9947,3.9904,3.9904,3.9904,3.9904,3.9904,3.9904,4.0299,4.0258,4.0248,4.0196,4.0178,4.014,4.0123,4.01,4.0078,4.0031,4.0001,3.9985,3.9958,3.9919,3.9886,3.9879,3.9865,3.986,3.9852,3.989,3.9894,3.9899,3.9908,3.9857,3.9857,3.9815,3.9815,3.9814]}]]